GW6847 Weather Reports


time (UTC)temp
C
wind
direction
speed
KPH
gust
KPH
rain 1hr
cm
rain 24hr
cm
rain mn
cm
humidity
%
barometer
mb
20260507200026 32 151 4.8 11.3 0.00 0.00 0.00 59 1012.7
20260507194545 32 169 4.8 14.5 0.00 0.00 0.00 58 1012.6
20260507193015 33 139 3.2 11.3 0.00 0.00 0.00 55 1013.0
20260507191529 33 174 3.2 11.3 0.00 0.00 0.00 55 1013.4
20260507190024 35 234 3.2 14.5 0.00 0.00 0.00 42 1013.3
20260507184504 34 199 3.2 12.9 0.00 0.00 0.00 41 1014.0
20260507183012 35 250 8.0 19.3 0.00 0.00 0.00 43 1014.2
20260507181514 35 259 4.8 17.7 0.00 0.00 0.00 45 1014.5
20260507180028 35 247 4.8 9.7 0.00 0.00 0.00 46 1014.7
20260507174526 34 245 6.4 12.9 0.00 0.00 0.00 46 1014.9
20260507173007 35 262 3.2 11.3 0.00 0.00 0.00 46 1014.9
20260507171512 33 145 4.8 9.7 0.00 0.00 0.00 50 1014.9
20260507170016 34 298 4.8 8.0 0.00 0.00 0.00 49 1015.0
20260507164529 33 205 3.2 9.7 0.00 0.00 0.00 51 1015.2
20260507163026 33 236 4.8 9.7 0.00 0.00 0.00 52 1015.3
20260507161508 33 169 3.2 8.0 0.00 0.00 0.00 54 1015.4
20260507160012 33 267 3.2 9.7 0.00 0.00 0.00 53 1015.7
20260507154520 32 263 3.2 14.5 0.00 0.00 0.00 55 1015.9
20260507153022 32 183 1.6 9.7 0.00 0.00 0.00 55 1016.0
20260507151525 31 274 3.2 9.7 0.00 0.00 0.00 57 1016.1
20260507150010 30 204 3.2 9.7 0.00 0.00 0.00 61 1016.1
20260507144514 30 236 3.2 8.0 0.00 0.00 0.00 62 1016.2
20260507143022 30 246 3.2 11.3 0.00 0.00 0.00 63 1016.3
20260507141525 29 307 1.6 9.7 0.00 0.00 0.00 65 1016.2
20260507140026 29 143 3.2 8.0 0.00 0.00 0.00 62 1016.2
20260507134516 28 152 1.6 11.3 0.00 0.00 0.00 64 1016.1
20260507133016 28 198 3.2 9.7 0.00 0.00 0.00 66 1016.2
20260507131529 27 160 4.8 11.3 0.00 0.00 0.00 71 1016.2
20260507130027 26 278 4.8 9.7 0.00 0.00 0.00 73 1016.1
20260507124525 25 142 1.6 6.4 0.00 0.00 0.00 75 1016.2
20260507123016 25 141 3.2 8.0 0.00 0.00 0.00 78 1016.3
20260507121520 24 146 1.6 4.8 0.00 0.00 0.00 80 1016.5
20260507120037 23 147 1.6 3.2 0.00 0.00 0.00 84 1016.4
20260507114527 22 297 0.0 1.6 0.00 0.00 0.00 88 1016.1
20260507113039 21 162 0.0 3.2 0.00 0.00 0.00 92 1016.1
20260507111515 20 204 0.0 3.2 0.00 0.00 0.00 93 1016.1
20260507110025 20 188 0.0 0.0 0.00 0.00 0.00 94 1015.9
20260507104525 19 187 0.0 0.0 0.00 0.00 0.00 94 1015.7
20260507103030 19 187 0.0 0.0 0.00 0.00 0.00 94 1015.6
20260507101528 19 188 0.0 0.0 0.00 0.00 0.00 93 1015.5
20260507100028 19 188 0.0 0.0 0.00 0.00 0.00 93 1015.3
20260507094521 20 187 0.0 0.0 0.00 0.00 0.00 93 1014.8
20260507093027 20 188 0.0 1.6 0.00 0.00 0.00 93 1014.7
20260507091508 20 160 0.0 1.6 0.00 0.00 0.00 93 1014.8
20260507090015 20 158 0.0 1.6 0.00 0.00 0.00 93 1014.7
20260507084521 19 252 0.0 0.0 0.00 0.00 0.00 93 1014.7
20260507083024 20 252 0.0 0.0 0.00 0.00 0.00 92 1014.6
20260507081532 20 252 0.0 0.0 0.00 0.00 0.00 92 1014.5
20260507080011 20 252 0.0 0.0 0.00 0.00 0.00 92 1014.7
20260507074528 20 252 0.0 0.0 0.00 0.00 0.00 91 1014.9
20260507073024 20 252 0.0 0.0 0.00 0.00 0.00 91 1014.8
20260507071533 21 252 0.0 0.0 0.00 0.00 0.00 90 1014.9
20260507070026 21 252 0.0 1.6 0.00 0.00 0.00 90 1015.1
20260507064513 21 252 0.0 1.6 0.00 0.00 0.00 89 1015.2
20260507063020 21 252 0.0 0.0 0.00 0.00 0.00 88 1015.4
20260507061530 22 252 0.0 0.0 0.00 0.00 0.00 86 1015.6
20260507060028 22 252 0.0 1.6 0.00 0.00 0.00 85 1015.8
20260507054527 22 252 0.0 1.6 0.00 0.00 0.00 83 1015.9
20260507053023 23 193 0.0 4.8 0.00 0.00 0.00 82 1016.0
20260507051524 23 122 0.0 6.4 0.00 0.00 0.00 81 1016.0
20260507050024 23 228 1.6 6.4 0.00 0.00 0.00 80 1016.1
20260507044527 24 167 1.6 6.4 0.00 0.00 0.00 80 1015.9
20260507043016 24 27 0.0 6.4 0.00 0.00 0.00 79 1015.9
20260507041519 24 133 1.6 4.8 0.00 0.00 0.00 79 1015.8
20260507040024 24 162 4.8 11.3 0.00 0.00 0.00 79 1015.9
20260507034535 24 194 1.6 6.4 0.00 0.00 0.00 78 1015.9
20260507033026 24 212 1.6 6.4 0.00 0.00 0.00 79 1016.1
20260507031517 24 216 1.6 9.7 0.00 0.00 0.00 79 1016.0
20260507030024 24 143 1.6 9.7 0.00 0.00 0.00 78 1016.0
20260507024530 24 196 1.6 11.3 0.00 0.00 0.00 77 1015.9
20260507023028 24 198 3.2 8.0 0.00 0.00 0.00 76 1016.0
20260507021526 24 229 1.6 4.8 0.00 0.00 0.00 76 1016.1
20260507020019 24 200 3.2 8.0 0.00 0.00 0.00 74 1015.9
20260507014504 24 227 1.6 6.4 0.00 0.00 0.00 74 1016.0
20260507013012 24 212 0.0 9.7 0.00 0.00 0.00 74 1016.1
20260507011510 24 108 1.6 6.4 0.00 0.00 0.00 73 1016.0
20260507010029 24 247 0.0 8.0 0.00 0.00 0.00 72 1015.9
20260507004520 25 193 3.2 8.0 0.00 0.00 0.00 70 1015.7
20260507003007 25 75 1.6 6.4 0.00 0.00 0.00 67 1015.6
20260507001508 25 164 0.0 4.8 0.00 0.00 0.00 63 1015.5
20260507000014 25 11 1.6 6.4 0.00 0.00 0.00 61 1015.5
20260506234538 26 136 3.2 12.9 0.00 0.00 0.00 59 1015.5
20260506233020 26 272 0.0 9.7 0.00 0.00 0.00 58 1015.5
20260506231507 26 9 3.2 8.0 0.00 0.00 0.00 58 1015.5
20260506230009 26 151 1.6 11.3 0.00 0.00 0.00 61 1015.6
20260506224525 26 184 1.6 14.5 0.00 0.00 0.00 62 1015.6
20260506223023 27 142 3.2 9.7 0.00 0.00 0.00 63 1015.8
20260506221524 27 348 3.2 12.9 0.00 0.00 0.00 63 1015.8
20260506220024 27 42 3.2 14.5 0.00 0.00 0.00 63 1015.8
20260506214514 27 3 1.6 12.9 0.00 0.00 0.00 62 1015.8
20260506213019 27 75 6.4 12.9 0.00 0.00 0.00 62 1015.9
20260506211523 28 64 3.2 16.1 0.00 0.00 0.00 60 1015.7
20260506210026 28 181 4.8 16.1 0.00 0.00 0.00 60 1015.7
20260506204512 27 75 9.7 20.9 0.00 0.00 0.00 58 1015.8
20260506203015 28 1 6.4 12.9 0.00 0.00 0.00 58 1015.9
20260506201519 28 360 6.4 17.7 0.00 0.00 0.00 58 1015.9